Showing default

QIANFAN-59, 62789

Orbit data source: Space-Track

QIANFAN-59, 62789 is a Chinese payload satellite in LEO that was launched on Thu, 23 Jan 2025 UTC via a CHANG ZHENG 6A launch vehicle from the Taiyaun Space Center, China (TSC). Payload-class satellites include a variety of spacecraft equipped with specific instruments for various scientific and technological missions. These include communications satellites like Starlink; space stations such as the ISS; scientific satellites like the Hubble; Earth observation satellites from companies like Planet Labs, Umbra, and HawkEye 360; GPS; miniature CubeSats for education and research; and military/defense satellites.

Loading next visibility...
Identifier
62789, 2025-016E
Orbit
LEO
Country
Flag of CNCN / PRC
Related business
Manufacturer
SECM
Mission
Operational Commercial Communications
Bus & Motor
QIANFAN, Unknown motor
Mass
267 kg wet, ~267 kg dry
Launch date (UTC)
2025-01-23 (11 months ago)
Launch vehicle
CHANG ZHENG 6A
Launch site
Taiyaun Space Center, China (TSC)
Object type
Payload
Rocket body
Debris
Shape & HBR
Box + 1 Pan, 1.5 m
Radar Cross Section
13.200 m², Large (>1 m²)

Expand to show TLE details & history
Last TLE update: 8 hours ago

TLE from 8 hours ago
0 QIANFAN-59
1 62789U 25016E   25352.59804160  .00000148  00000-0  21106-3 0  9992
2 62789  88.9781 102.5003 0013028 335.2579  24.7945 13.50981591 48032
Epoch: 2025-12-18T14:21Z
TLE epoch observation values (Epoch: 2025-12-18T14:21:10.794Z)
Latitude
-0.00009°
Longitude
159.75407°
Altitude
1,062.796 km
Speed
7.325 km/s
True Right ascension
06h 50m 00s
True Declination
0° 00' 00"
Sunlit
Object was in full shadow at epoch
Visualization orbit readout
Latitude
Unknown
Longitude
Unknown
Altitude
Unknown
Speed
Unknown
Apparent Right ascension
Unknown
Apparent Declination
Unknown
Sunlit
N/A
Visualization observer readout
Local Sidereal Time
20:58:04
Azimuth
Unknown
Elevation
Unknown
Doppler factor
Unknown
Orbital elements
Apogee altitude
1,075.398 km
Perigee altitude
1,056.003 km
Semi-major axis
7,443.837 km
Eccentricity
0.0013
Inclination
88.9781°
RAAN
102.5003°
Arg. of periapsis
335.2579°
True anomaly
24.8572°
Mean anomaly
24.7945°
Eccentric anomaly
24.82584°
Mean motion
3.37946 °/min
Orbital period
106.53 mins
BSTAR
0.00021106
Loading maneuver chart data...
Computing Atmospheric mass density...
Loading historical data...
Loading historical data...
Loading historical data...
Loading historical data...
Loading historical data...
Loading historical data...
Loading historical data...

Documentation

Showing up to 5 results
|